TimeEST,TemperatureF,Dew PointF,Humidity,Sea Level PressureIn,VisibilityMPH,Wind Direction,Wind SpeedMPH,Gust SpeedMPH,PrecipitationIn,Events,Conditions,WindDirDegrees,DateUTC
12:15 AM,32.0,32.0,100,30.33,10.0,Calm,Calm,-,N/A,,Clear,0,2013-12-19 05:15:00
12:35 AM,32.0,32.0,100,30.33,10.0,Calm,Calm,-,N/A,,Clear,0,2013-12-19 05:35:00
12:55 AM,32.0,32.0,100,30.33,7.0,Calm,Calm,-,N/A,,Clear,0,2013-12-19 05:55:00
1:15 AM,32.0,32.0,100,30.33,10.0,Calm,Calm,-,N/A,,Clear,0,2013-12-19 06:15:00
1:35 AM,32.0,32.0,100,30.33,10.0,Calm,Calm,-,N/A,,Clear,0,2013-12-19 06:35:00
1:55 AM,30.2,30.2,100,30.33,10.0,Calm,Calm,-,N/A,,Clear,0,2013-12-19 06:55:00
2:15 AM,32.0,32.0,100,30.33,10.0,Calm,Calm,-,N/A,,Clear,0,2013-12-19 07:15:00
2:35 AM,32.0,32.0,100,30.33,7.0,Calm,Calm,-,N/A,,Clear,0,2013-12-19 07:35:00
2:55 AM,30.2,30.2,100,30.34,10.0,Calm,Calm,-,N/A,,Clear,0,2013-12-19 07:55:00
3:15 AM,30.2,30.2,100,30.34,7.0,Calm,Calm,-,N/A,,Clear,0,2013-12-19 08:15:00
3:35 AM,30.2,30.2,100,30.34,10.0,Calm,Calm,-,N/A,,Clear,0,2013-12-19 08:35:00
7:15 AM,30.2,30.2,100,30.35,10.0,Calm,Calm,-,N/A,,Clear,0,2013-12-19 12:15:00
7:35 AM,30.2,30.2,100,30.36,10.0,Calm,Calm,-,N/A,,Clear,0,2013-12-19 12:35:00
7:55 AM,30.2,30.2,100,30.36,10.0,Calm,Calm,-,N/A,,Clear,0,2013-12-19 12:55:00
8:15 AM,32.0,32.0,100,30.36,10.0,Calm,Calm,-,N/A,,Clear,0,2013-12-19 13:15:00
8:35 AM,33.8,32.0,93,30.36,10.0,Calm,Calm,-,N/A,,Clear,0,2013-12-19 13:35:00
8:55 AM,35.6,33.8,93,30.37,10.0,Calm,Calm,-,N/A,,Clear,0,2013-12-19 13:55:00
9:15 AM,41.0,37.4,87,30.37,10.0,Calm,Calm,-,N/A,,Clear,0,2013-12-19 14:15:00
9:35 AM,44.6,39.2,81,30.37,10.0,Calm,Calm,-,N/A,,Clear,0,2013-12-19 14:35:00
9:55 AM,50.0,37.4,62,30.37,10.0,Calm,Calm,-,N/A,,Clear,0,2013-12-19 14:55:00
10:15 AM,53.6,33.8,47,30.38,10.0,Calm,Calm,-,N/A,,Clear,0,2013-12-19 15:15:00
10:35 AM,55.4,32.0,41,30.37,10.0,Calm,Calm,-,N/A,,Clear,0,2013-12-19 15:35:00
10:55 AM,59.0,33.8,39,30.37,10.0,Calm,Calm,-,N/A,,Clear,0,2013-12-19 15:55:00
11:15 AM,59.0,35.6,42,30.37,10.0,Calm,Calm,-,N/A,,Clear,0,2013-12-19 16:15:00
11:35 AM,60.8,37.4,42,30.36,10.0,SSW,3.5,-,N/A,,Clear,200,2013-12-19 16:35:00
11:55 AM,62.6,37.4,39,30.35,10.0,SSW,3.5,-,N/A,,Clear,210,2013-12-19 16:55:00
12:15 PM,62.6,39.2,42,30.34,10.0,Calm,Calm,-,N/A,,Clear,0,2013-12-19 17:15:00
12:35 PM,62.6,39.2,42,30.32,10.0,East,4.6,-,N/A,,Clear,100,2013-12-19 17:35:00
12:55 PM,64.4,41.0,42,30.32,10.0,South,4.6,-,N/A,,Clear,180,2013-12-19 17:55:00
1:15 PM,64.4,41.0,42,30.31,10.0,South,5.8,-,N/A,,Clear,180,2013-12-19 18:15:00
1:35 PM,64.4,41.0,42,30.30,10.0,South,3.5,-,N/A,,Clear,190,2013-12-19 18:35:00
1:55 PM,66.2,42.8,43,30.29,10.0,WSW,3.5,-,N/A,,Clear,240,2013-12-19 18:55:00
2:15 PM,66.2,42.8,43,30.28,10.0,Calm,Calm,-,N/A,,Clear,0,2013-12-19 19:15:00
2:35 PM,68.0,42.8,40,30.28,10.0,Calm,Calm,-,N/A,,Clear,0,2013-12-19 19:35:00
2:55 PM,68.0,44.6,43,30.28,10.0,SW,4.6,-,N/A,,Clear,220,2013-12-19 19:55:00
3:15 PM,68.0,44.6,43,30.27,10.0,South,3.5,-,N/A,,Clear,190,2013-12-19 20:15:00
3:35 PM,66.2,44.6,46,30.26,10.0,Calm,Calm,-,N/A,,Clear,0,2013-12-19 20:35:00
3:55 PM,66.2,46.4,49,30.26,10.0,SSE,4.6,-,N/A,,Clear,150,2013-12-19 20:55:00
4:15 PM,64.4,46.4,52,30.26,10.0,SSW,4.6,-,N/A,,Clear,200,2013-12-19 21:15:00
4:35 PM,64.4,46.4,52,30.27,10.0,Calm,Calm,-,N/A,,Clear,0,2013-12-19 21:35:00
4:55 PM,64.4,46.4,52,30.27,10.0,Calm,Calm,-,N/A,,Clear,0,2013-12-19 21:55:00
5:15 PM,60.8,48.2,63,30.27,10.0,SE,3.5,-,N/A,,Clear,130,2013-12-19 22:15:00
5:35 PM,59.0,48.2,67,30.28,10.0,SE,3.5,-,N/A,,Scattered Clouds,140,2013-12-19 22:35:00
5:55 PM,59.0,48.2,67,30.27,10.0,ESE,3.5,-,N/A,,Mostly Cloudy,120,2013-12-19 22:55:00
6:15 PM,57.2,48.2,72,30.28,10.0,SE,3.5,-,N/A,,Scattered Clouds,130,2013-12-19 23:15:00
6:35 PM,55.4,48.2,77,30.28,10.0,Calm,Calm,-,N/A,,Mostly Cloudy,0,2013-12-19 23:35:00
7:35 PM,50.0,46.4,87,30.29,10.0,Calm,Calm,-,N/A,,Clear,0,2013-12-20 00:35:00
8:15 PM,48.2,46.4,93,30.29,10.0,Calm,Calm,-,N/A,,Scattered Clouds,0,2013-12-20 01:15:00
11:35 PM,42.8,42.8,100,30.25,10.0,Calm,Calm,-,N/A,,Clear,0,2013-12-20 04:35:00
11:55 PM,42.8,42.8,100,30.25,10.0,Calm,Calm,-,N/A,,Clear,0,2013-12-20 04:55:00